GFSFLT1_sfc_temp_132.txt.gz
Temp
82 87 93 93 91 91 90 90 89 89 87 84 85 86 86 86 85 84 89 88 92 91 93 93 92 90 90 90 89 89 89 91 92
82 84 90 92 92 91 91 90 89 89 87 86 86 87 86 86 86 86 90 89 88 90 90 94 91 90 89 90 90 89 89 91 89
83 81 79 91 92 92 92 93 92 91 89 87 88 88 88 88 88 87 87 87 86 88 89 88 89 88 89 89 89 89 88 91 89
80 81 79 89 91 92 92 93 92 91 90 88 88 89 88 88 89 89 88 85 86 86 86 88 88 88 88 87 88 88 87 87 89
84 75 78 85 87 89 90 90 91 89 90 89 89 90 88 88 89 89 90 88 89 89 85 88 87 87 87 88 88 87 87 87 89
81 81 72 77 80 78 83 89 89 89 88 89 90 89 89 88 88 89 88 89 89 89 88 87 88 86 85 86 86 87 87 87 87
82 81 81 73 74 72 81 76 85 86 88 89 88 89 89 87 87 88 89 89 88 88 88 87 87 88 87 87 88 87 87 87 87
78 75 73 73 77 73 72 72 77 81 83 87 88 86 86 86 87 88 88 87 87 87 87 87 87 87 87 87 88 90 87 87 86
77 77 76 71 68 71 71 73 69 74 82 80 81 84 84 86 85 85 85 85 85 85 85 85 85 84 85 85 89 69 70 76 87
60 63 73 74 71 68 68 68 68 68 78 82 80 81 76 78 79 78 82 84 82 84 84 85 84 85 85 85 86 66 66 68 84
59 59 60 62 69 71 72 71 69 69 70 75 78 76 80 75 80 78 80 80 81 75 81 82 83 84 84 83 82 64 63 65 79
63 61 60 61 63 66 69 69 68 69 69 71 75 71 78 79 80 76 78 75 79 76 78 76 79 81 81 81 81 63 60 65 79
69 68 65 63 67 65 66 65 67 70 69 69 69 76 76 73 73 71 71 73 73 69 68 66 66 72 77 64 77 59 58 62 77
71 70 71 70 67 62 63 64 66 68 69 69 71 71 74 74 75 72 73 73 71 69 65 62 62 63 61 62 64 65 56 57 68
71 68 69 69 66 63 63 64 66 68 68 71 73 75 74 73 68 67 64 61 60 60 61 59 56 57 56 57 59 56 55 56 57
72 69 68 68 65 63 61 61 63 62 63 68 66 66 65 66 66 65 68 64 59 58 58 56 56 57 57 57 58 57 55 55 56
70 71 69 68 65 63 59 60 59 60 62 64 66 64 65 64 62 60 61 60 61 58 57 57 57 57 58 59 60 62 64 59 56
70 68 67 65 62 62 60 59 59 59 59 61 58 59 60 59 58 55 53 49 50 53 51 53 55 56 58 61 65 61 51 61 65
71 70 68 67 64 63 63 61 61 61 60 59 56 55 55 54 53 52 52 50 49 45 45 44 43 44 51 53 46 44 44 46 45
64 71 71 70 69 68 64 66 65 64 65 63 61 61 59 58 57 57 53 53 53 49 46 45 42 42 43 44 43 42 43 42 44

GFSFLT1_sfc_temp_135.txt.gz
Temp
88 84 89 93 95 92 89 93 93 93 88 86 86 87 86 86 87 89 90 88 82 92 86 94 89 90 91 90 92 90 90 92 92
86 90 90 85 96 96 95 92 93 93 89 87 88 88 87 85 85 87 88 88 90 93 91 86 92 92 91 91 91 91 90 91 91
89 89 87 81 96 96 96 93 95 94 92 89 89 90 89 89 87 87 89 89 85 90 92 91 84 87 90 91 91 91 89 91 91
89 89 86 86 88 93 96 96 92 94 93 90 89 90 90 90 90 91 88 88 88 88 89 89 89 89 89 89 89 90 87 88 87
86 84 77 80 70 88 86 87 89 92 93 92 91 91 90 90 91 91 91 89 88 86 86 88 88 89 88 89 89 89 87 87 90
85 80 74 72 70 76 84 86 88 92 92 92 93 91 91 91 90 91 90 88 91 87 85 86 89 88 87 87 88 87 87 86 86
85 80 76 69 68 74 86 86 78 88 91 92 91 91 91 89 89 90 91 91 91 91 89 87 88 87 86 85 88 89 89 87 86
82 77 74 68 68 73 80 80 84 86 83 89 88 89 89 89 89 89 89 89 89 89 89 89 89 89 87 86 88 91 86 87 85
69 78 77 70 74 71 73 76 73 79 84 82 85 85 86 87 86 86 86 86 86 86 87 87 87 87 88 85 91 72 77 79 86
64 63 70 77 76 75 72 71 73 72 70 78 79 82 83 84 84 83 83 84 84 84 84 83 83 85 86 85 85 68 69 71 86
67 64 61 65 65 74 74 73 71 71 73 69 72 79 80 76 83 83 83 83 83 82 82 81 76 82 84 84 83 66 66 67 80
72 69 67 64 64 66 68 70 74 70 69 70 69 72 79 73 82 76 78 80 81 77 80 80 80 75 77 81 79 63 62 66 81
75 75 73 69 70 69 69 69 71 69 67 72 68 70 75 79 73 77 77 75 74 77 79 78 76 75 78 65 72 59 58 65 79
77 76 74 74 72 70 69 68 68 67 73 69 69 70 70 72 74 71 73 73 74 73 72 72 72 70 69 67 62 61 57 57 74
76 73 72 73 70 68 68 66 66 67 66 70 71 69 69 69 69 69 68 66 62 61 59 58 59 59 60 60 62 57 55 56 59
77 73 71 72 70 67 63 62 62 64 66 70 69 68 66 67 66 67 67 66 65 63 61 59 58 58 57 57 57 57 54 55 56
77 75 71 71 69 64 59 60 60 60 62 67 68 67 68 68 67 66 65 65 64 61 61 59 59 60 60 59 58 57 57 56 55
75 71 69 70 68 63 59 59 59 59 60 62 63 64 65 67 66 67 60 52 53 57 50 58 60 62 62 58 62 58 49 58 59
74 69 70 68 68 68 66 61 62 60 59 59 60 59 59 56 55 55 56 56 52 46 46 44 44 44 56 55 48 46 45 44 45
67 73 71 68 68 70 66 66 65 66 63 62 62 60 59 57 60 59 56 55 58 57 51 45 42 42 43 44 44 43 42 43 44

GFSFLT1_sfc_temp_138.txt.gz
Temp
82 86 87 79 83 85 88 88 88 87 83 80 81 83 82 83 82 79 74 84 87 82 81 81 84 85 86 86 86 86 85 84 84
83 85 87 85 87 85 87 86 88 87 83 82 83 83 80 82 83 83 85 82 85 84 85 85 85 85 85 86 86 84 85 84 83
82 86 83 88 85 81 89 87 85 89 86 84 84 85 83 83 83 84 85 85 81 80 82 83 79 82 79 87 86 83 84 84 84
86 87 85 88 83 77 75 90 90 90 85 85 85 86 85 83 83 84 81 81 77 79 83 84 83 79 76 83 84 84 83 83 83
85 90 91 88 85 74 74 85 87 86 88 87 87 86 85 85 84 84 81 83 83 83 83 83 85 82 81 82 84 84 83 82 83
84 83 79 79 80 69 70 77 85 86 86 86 87 87 87 86 85 86 85 81 82 83 83 83 85 85 83 83 83 83 84 83 82
81 81 80 75 70 69 69 70 70 77 84 88 86 86 87 84 85 86 87 83 83 80 81 80 80 83 84 83 84 83 83 82 81
80 79 77 74 67 67 67 67 67 71 72 75 84 83 84 84 84 85 86 85 85 85 82 81 82 81 81 82 81 85 81 81 81
73 77 76 75 74 72 68 68 69 71 73 70 74 76 83 83 81 83 84 85 85 84 84 83 83 82 82 80 84 72 74 79 80
67 67 74 75 75 73 70 69 70 72 74 72 73 74 75 82 82 82 81 81 81 80 80 81 81 81 79 80 82 70 73 74 81
70 69 68 67 68 70 71 72 71 73 75 75 75 75 80 81 82 81 81 79 78 78 78 79 77 77 78 78 78 66 69 70 80
74 72 72 69 67 67 69 70 72 72 71 72 72 73 73 78 80 78 80 78 78 79 78 78 79 78 77 76 72 64 63 65 78
76 76 75 73 73 70 70 71 72 71 72 72 70 72 72 70 73 72 76 76 75 76 75 76 76 77 76 67 65 59 60 64 73
77 76 76 73 72 69 67 67 67 67 68 72 74 70 70 70 70 70 70 67 67 67 67 68 66 68 67 65 62 61 58 57 70
76 74 72 72 68 68 66 64 63 65 66 68 74 72 69 67 68 68 66 63 62 62 61 61 59 60 59 59 59 56 56 56 58
76 74 71 70 69 66 62 61 61 61 63 68 67 70 67 65 65 65 64 63 63 62 61 60 60 60 59 57 57 57 54 54 55
76 72 72 69 68 64 60 61 59 59 61 65 68 65 65 65 64 61 62 62 62 63 64 62 62 61 60 59 58 57 57 56 54
73 70 69 68 66 65 61 61 59 59 60 62 63 65 65 65 65 59 53 49 51 57 52 52 64 61 61 59 56 55 51 54 56
72 70 68 70 67 67 66 64 62 60 59 60 59 59 59 59 59 59 58 56 52 46 46 45 43 44 54 54 48 46 44 44 45
68 72 71 70 70 69 68 68 66 64 64 61 59 57 58 57 57 57 57 58 58 55 50 45 44 43 43 43 43 43 43 43 44

GFSFLT1_sfc_temp_141.txt.gz
Temp
77 76 78 77 75 78 75 80 80 79 75 75 75 75 75 74 75 73 73 75 76 75 78 77 79 78 77 78 78 78 78 76 77
74 76 79 76 77 80 79 82 80 78 76 76 76 77 74 75 75 74 75 75 75 74 76 80 79 79 78 78 79 78 78 77 76
71 77 78 77 77 77 78 86 81 80 78 76 77 78 76 76 76 75 75 75 76 75 76 78 76 75 77 78 78 78 76 77 76
66 78 80 77 79 79 76 81 81 80 78 77 77 78 78 76 75 76 75 75 75 74 75 76 75 75 74 76 76 77 76 76 76
69 71 77 75 79 73 71 71 71 75 79 79 80 80 78 78 76 75 74 75 75 75 74 76 76 75 74 75 76 76 76 76 78
64 69 69 68 69 68 67 68 71 70 74 79 81 80 79 79 77 78 75 75 75 76 76 76 76 75 75 75 76 76 76 76 76
69 71 70 67 65 65 65 65 67 67 70 70 70 77 79 79 78 79 80 79 79 75 75 75 75 76 76 76 76 76 76 76 76
70 70 67 66 65 64 67 66 66 68 68 69 68 69 70 76 79 79 77 76 76 75 75 75 75 75 75 76 77 78 75 76 75
65 65 68 68 67 66 67 67 67 68 68 69 67 66 67 71 74 75 75 75 74 74 74 74 75 75 75 75 79 75 74 73 73
65 63 64 64 66 67 67 67 67 67 68 69 67 66 68 68 74 74 73 73 73 74 74 74 74 75 75 75 75 70 72 74 74
64 64 64 63 64 65 66 67 67 68 69 69 69 68 68 68 72 72 74 73 73 72 73 73 73 73 73 73 71 67 68 70 71
66 65 64 63 63 64 66 68 67 67 68 68 68 67 68 70 71 71 70 69 71 72 70 70 71 71 71 72 67 64 64 66 69
68 67 66 65 65 65 64 66 67 65 66 67 67 68 68 68 69 69 69 69 69 69 69 69 69 66 65 64 63 59 59 60 67
68 66 66 67 67 62 63 63 64 64 66 65 68 69 68 68 68 68 66 65 64 64 63 63 64 62 62 61 59 59 57 57 62
66 64 65 67 65 62 61 61 61 64 63 66 68 67 67 67 67 66 65 64 62 62 62 61 60 60 59 58 58 55 55 55 57
65 64 62 67 64 61 60 60 60 60 61 65 66 66 65 65 64 64 63 63 61 60 60 59 59 58 58 57 57 56 54 54 55
64 62 62 66 63 61 58 59 59 59 61 64 65 64 64 62 60 57 56 58 59 60 60 60 60 58 58 57 57 56 57 55 55
62 61 62 64 63 61 59 60 58 59 61 63 63 62 62 60 58 54 51 48 48 53 47 49 59 59 59 58 54 54 51 53 55
61 60 65 62 63 62 61 60 59 59 60 60 60 58 58 58 57 56 55 52 49 47 46 45 44 45 53 50 46 45 44 44 45
63 62 63 61 63 61 60 59 60 61 60 60 58 57 57 56 56 55 55 55 52 49 49 46 44 43 43 45 44 43 43 43 45

GFSFLT1_sfc_temp_147.txt.gz
Temp
67 68 75 73 73 71 73 74 74 74 72 72 70 70 70 71 71 69 70 71 71 71 71 72 73 73 73 73 73 74 73 72 73
63 65 70 74 73 70 73 75 74 75 73 73 71 72 70 70 70 70 71 71 70 70 71 74 74 73 73 74 74 73 73 72 72
62 64 66 71 74 73 73 76 76 75 74 73 73 73 71 73 71 71 71 71 71 72 72 73 73 73 73 73 74 74 73 72 72
60 63 63 68 70 73 73 77 75 74 74 73 72 73 73 72 71 72 71 70 71 72 72 73 72 73 73 73 73 73 72 72 72
62 64 66 67 69 68 70 71 73 72 75 74 75 75 74 73 72 71 71 71 71 72 71 72 72 72 70 71 73 71 72 72 73
62 65 64 65 65 65 67 69 71 72 73 72 72 72 73 73 71 70 71 71 71 71 72 72 71 71 71 71 71 71 71 71 71
63 64 65 65 64 65 66 66 66 66 67 68 69 69 70 70 70 71 73 72 71 71 71 71 71 72 72 72 71 71 72 72 72
65 65 66 65 65 65 66 66 66 67 66 66 67 67 67 68 68 69 70 71 72 72 71 72 71 72 72 71 72 74 72 72 72
64 65 65 65 65 65 65 66 67 67 68 67 67 67 67 67 66 67 69 69 70 70 71 71 72 71 72 72 75 71 69 72 72
61 62 65 65 65 64 64 65 66 65 66 68 67 67 67 67 67 66 66 68 69 69 70 69 70 71 71 72 72 67 67 68 71
61 62 63 63 64 65 65 65 65 66 66 66 66 66 66 67 67 66 66 67 68 69 69 69 70 70 71 71 70 64 64 66 70
61 61 62 62 62 63 63 63 64 64 65 66 65 65 66 67 66 66 67 67 68 67 67 68 68 69 70 69 67 59 61 65 69
62 62 62 62 61 60 60 60 63 63 63 63 63 65 66 67 67 67 67 67 68 68 67 66 67 66 66 63 62 59 59 63 67
62 61 60 60 59 57 57 61 62 62 63 63 64 67 66 66 66 67 66 65 65 65 65 65 64 62 61 60 61 60 58 59 65
60 60 60 59 57 58 60 61 61 62 62 63 66 66 66 66 65 65 64 63 63 63 63 62 62 61 59 59 59 57 57 57 57
59 59 58 58 57 60 59 60 60 60 61 62 65 65 63 62 61 61 62 61 60 60 61 60 60 59 58 57 57 57 55 54 56
57 57 57 57 58 60 58 59 59 59 60 64 64 62 60 58 57 55 55 56 55 57 59 59 58 57 57 57 57 57 56 56 56
57 57 57 57 57 60 59 57 59 60 61 62 60 59 58 57 56 54 50 48 50 53 49 48 58 58 57 56 55 54 50 53 55
57 57 56 56 57 60 56 59 59 60 61 61 60 58 57 55 54 54 53 52 50 47 46 45 44 47 52 51 48 48 45 45 46
57 57 57 57 57 57 56 56 59 59 61 61 59 57 56 54 54 53 53 53 53 51 50 46 43 43 43 45 44 44 44 44 46